Eagle, AK

5:47 AM AKDT on October 20, 2017 (GMT -0800)
Eagle

Weather History for PAEG - March, 2012

Change the Weather History Date:

Tuesday, March 27, 2012

  Actual Average (PABN) Record (PABN)
Temperature  
Mean Temperature 16 °F -  
Max Temperature 39 °F 23 °F 41 °F (1999)
Min Temperature -6 °F 9 °F -5 °F (2013)
Degree Days  
Heating Degree Days 50    
Moisture  
Dew Point 3 °F    
Average Humidity 62    
Maximum Humidity 84    
Minimum Humidity 33    
Precipitation  
Precipitation 0.00 in - - ()
Sea Level Pressure  
Sea Level Pressure 29.58 in    
Wind  
Wind Speed 2 mph (SE)    
Max Wind Speed 10 mph    
Max Gust Speed 20 mph    
Visibility 10 miles    
Events      
Averages and records for this station are not official NWS values.
T = Trace of Precipitation, MM = Missing Value Source: NWS Daily Summary

Daily Weather History Graph

Daily Weather History Graph

Search for Another Location

Airport or City:

Trip Planner

Search our weather history database for the weather conditions in past years. The results will help you decide how hot, cold, wet, or windy it might be!

Date:

Astronomy

Mar. 27, 2012 Rise Set
Actual Time 6:57 AM AKDT 8:04 PM AKDT
Civil Twilight 6:07 AM AKDT 8:54 PM AKDT
Nautical Twilight 5:03 AM AKDT 9:58 PM AKDT
Astronomical Twilight 3:44 AM AKDT 11:19 PM AKDT
Moon 7:26 AM AKDT (3/27) 2:25 AM AKDT (3/27)
Length of Visible Light 14h 47m
Length of Day
13h 07m
Waxing Crescent, 23% of the Moon is Illuminated
Mar 27
Waxing Crescent
Mar 30
First Quarter
Apr 6
Full
Apr 13
Last Quarter
Apr 20
New

Hourly Weather History & Observations

Time (AKDT) Temp. Windchill Dew Point Humidity Pressure Visibility Wind Dir Wind Speed Gust Speed Precip Events Conditions
12:53 AM 3.9 °F - -0.0 °F 84% 29.65 in 10.0 mi Calm Calm - N/A   Clear
1:53 AM 1.9 °F - -2.0 °F 83% 29.66 in 10.0 mi Calm Calm - N/A   Clear
2:53 AM -0.0 °F - -4.0 °F 83% 29.66 in 10.0 mi Calm Calm - N/A   Clear
3:53 AM -2.0 °F - -6.0 °F 83% 29.65 in 10.0 mi Calm Calm - N/A   Clear
4:53 AM -4.0 °F - -8.0 °F 83% 29.66 in 10.0 mi Calm Calm - N/A   Clear
5:53 AM -5.1 °F -13.6 °F -9.0 °F 83% 29.67 in 10.0 mi WSW 3.5 mph - N/A   Clear
6:53 AM -6.0 °F - -11.0 °F 79% 29.68 in 10.0 mi Calm Calm - N/A   Clear
7:53 AM -4.0 °F - -9.0 °F 79% 29.67 in 10.0 mi Calm Calm - N/A   Clear
8:53 AM 1.9 °F - -2.0 °F 83% 29.67 in 10.0 mi Calm Calm - N/A   Clear
9:53 AM 9.0 °F - 3.0 °F 77% 29.65 in 10.0 mi Calm Calm - N/A   Clear
10:53 AM 16.0 °F - 6.1 °F 65% 29.63 in 10.0 mi Calm Calm - N/A   Clear
11:53 AM 21.9 °F - 7.0 °F 53% 29.61 in 10.0 mi Calm Calm - N/A   Clear
12:53 PM 33.1 °F 24.9 °F 10.9 °F 40% 29.57 in 10.0 mi SE 10.4 mph 19.6 mph N/A   Clear
1:53 PM 35.1 °F 27.9 °F 10.9 °F 37% 29.56 in 10.0 mi ESE 9.2 mph - N/A   Clear
2:53 PM 37.0 °F 30.4 °F 10.9 °F 34% 29.54 in 10.0 mi SE 9.2 mph - N/A   Clear
3:53 PM 37.0 °F 31.6 °F 10.9 °F 34% 29.52 in 10.0 mi SE 6.9 mph - N/A   Partly Cloudy
4:53 PM 37.9 °F 32.1 °F 10.9 °F 33% 29.50 in 10.0 mi SSE 8.1 mph - N/A   Clear
5:53 PM 37.9 °F 32.7 °F 10.9 °F 33% 29.49 in 10.0 mi SE 6.9 mph - N/A   Clear
6:53 PM 37.0 °F 32.4 °F 10.9 °F 34% 29.47 in 10.0 mi SSE 5.8 mph - N/A   Clear
7:53 PM 30.9 °F - 10.9 °F 43% 29.47 in 10.0 mi Calm Calm - N/A   Clear
8:53 PM 23.0 °F - 9.0 °F 55% 29.47 in 10.0 mi Calm Calm - N/A   Clear
9:53 PM 17.1 °F - 6.1 °F 62% 29.47 in 10.0 mi Calm Calm - N/A   Clear
10:53 PM 12.9 °F - 3.9 °F 67% 29.47 in 10.0 mi Calm Calm - N/A   Clear
11:53 PM 10.9 °F - 3.9 °F 73% 29.45 in 10.0 mi Calm Calm - N/A   Clear